| time (UTC) | temp C | wind direction | speed KPH | gust KPH | rain 1hr cm | rain 24hr cm | rain mn cm | humidity % | barometer mb |
| 20260504231004 | 10 | 281 | 3.2 | 20.9 | 0.00 | 1.96 | 0.97 | 67 | 1001.2 |
| 20260504230004 | 11 | 245 | 4.8 | 12.9 | 0.00 | 2.01 | 0.97 | 66 | 1001.2 |
| 20260504225004 | 11 | 239 | 3.2 | 12.9 | 0.00 | 2.06 | 0.97 | 66 | 1000.9 |
| 20260504224003 | 11 | 244 | 3.2 | 12.9 | 0.00 | 2.11 | 0.97 | 64 | 1000.5 |
| 20260504223004 | 11 | 237 | 3.2 | 9.7 | 0.00 | 2.13 | 0.97 | 64 | 1000.5 |
| 20260504222004 | 11 | 259 | 3.2 | 16.1 | 0.00 | 2.18 | 0.97 | 64 | 1000.5 |
| 20260504221003 | 11 | 241 | 6.4 | 22.5 | 0.00 | 2.26 | 0.97 | 62 | 1000.2 |
| 20260504220004 | 11 | 240 | 4.8 | 14.5 | 0.00 | 2.29 | 0.97 | 61 | 1000.2 |
| 20260504215003 | 11 | 230 | 4.8 | 16.1 | 0.00 | 2.34 | 0.97 | 60 | 999.8 |
| 20260504214003 | 12 | 245 | 4.8 | 14.5 | 0.00 | 2.36 | 0.97 | 58 | 1000.2 |
| 20260504213004 | 12 | 232 | 4.8 | 17.7 | 0.00 | 2.41 | 0.97 | 57 | 1000.2 |
| 20260504212004 | 12 | 263 | 6.4 | 27.4 | 0.00 | 2.49 | 0.97 | 56 | 1000.2 |
| 20260504211004 | 12 | 242 | 6.4 | 20.9 | 0.00 | 2.57 | 0.97 | 52 | 1000.2 |
| 20260504210004 | 12 | 218 | 6.4 | 22.5 | 0.00 | 2.62 | 0.97 | 49 | 999.8 |
| 20260504205003 | 13 | 240 | 6.4 | 27.4 | 0.00 | 2.67 | 0.97 | 46 | 999.8 |
| 20260504204003 | 13 | 245 | 6.4 | 24.1 | 0.00 | 2.72 | 0.97 | 44 | 999.5 |
| 20260504203003 | 13 | 252 | 3.2 | 20.9 | 0.00 | 2.74 | 0.97 | 43 | 999.5 |
| 20260504202004 | 13 | 266 | 6.4 | 16.1 | 0.00 | 2.79 | 0.97 | 37 | 999.5 |
| 20260504201004 | 14 | 282 | 8.0 | 24.1 | 0.00 | 2.84 | 0.97 | 35 | 999.2 |
| 20260504200004 | 14 | 276 | 8.0 | 27.4 | 0.00 | 2.95 | 0.97 | 34 | 999.2 |
| 20260504195003 | 15 | 263 | 6.4 | 20.9 | 0.00 | 3.05 | 0.97 | 32 | 998.8 |
| 20260504194003 | 15 | 280 | 8.0 | 22.5 | 0.00 | 3.15 | 0.97 | 32 | 999.2 |
| 20260504193003 | 16 | 283 | 9.7 | 29.0 | 0.00 | 3.23 | 0.97 | 30 | 998.8 |
| 20260504192003 | 16 | 293 | 8.0 | 30.6 | 0.00 | 3.35 | 0.97 | 29 | 998.8 |
| 20260504191003 | 16 | 283 | 9.7 | 25.7 | 0.00 | 3.51 | 0.97 | 30 | 998.8 |
| 20260504190004 | 16 | 284 | 8.0 | 33.8 | 0.00 | 3.68 | 0.97 | 29 | 998.8 |
| 20260504185003 | 16 | 275 | 8.0 | 27.4 | 0.00 | 3.78 | 0.97 | 28 | 998.8 |
| 20260504184003 | 16 | 278 | 8.0 | 29.0 | 0.00 | 3.91 | 0.97 | 29 | 998.8 |
| 20260504183003 | 15 | 290 | 9.7 | 29.0 | 0.00 | 4.01 | 0.97 | 35 | 998.8 |
| 20260504182003 | 15 | 275 | 9.7 | 29.0 | 0.00 | 4.09 | 0.97 | 31 | 998.8 |
| 20260504181003 | 15 | 277 | 9.7 | 29.0 | 0.00 | 4.19 | 0.97 | 32 | 998.8 |
| 20260504180003 | 14 | 284 | 8.0 | 33.8 | 0.00 | 4.27 | 0.97 | 33 | 998.8 |
| 20260504175003 | 14 | 277 | 11.3 | 30.6 | 0.00 | 4.34 | 0.97 | 33 | 998.8 |
| 20260504174003 | 14 | 271 | 9.7 | 27.4 | 0.00 | 4.42 | 0.97 | 34 | 998.8 |
| 20260504173004 | 14 | 278 | 9.7 | 25.7 | 0.00 | 4.47 | 0.97 | 34 | 998.8 |
| 20260504172003 | 13 | 238 | 6.4 | 20.9 | 0.00 | 4.55 | 0.97 | 35 | 998.8 |
| 20260504171003 | 13 | 252 | 9.7 | 25.7 | 0.00 | 4.60 | 0.97 | 36 | 999.2 |
| 20260504151003 | 10 | 274 | 8.0 | 24.1 | 0.00 | 4.70 | 0.97 | 57 | 999.2 |
| 20260504141003 | 8 | 273 | 8.0 | 29.0 | 0.00 | 4.72 | 0.97 | 68 | 998.5 |
| 20260504082004 | 3 | 281 | 6.4 | 14.5 | 0.10 | 4.72 | 0.94 | 98 | 994.4 |
| 20260504081003 | 3 | 283 | 8.0 | 29.0 | 0.10 | 4.70 | 0.91 | 98 | 994.0 |
| 20260504050004 | 1 | 285 | 8.0 | 25.7 | 0.20 | 4.04 | 0.25 | 98 | 991.7 |
| 20260504045003 | 1 | 303 | 8.0 | 24.1 | 0.20 | 4.01 | 0.23 | 98 | 991.3 |
| 20260504044003 | 1 | 283 | 8.0 | 20.9 | 0.18 | 3.96 | 0.18 | 99 | 991.3 |
| 20260504043003 | 1 | 293 | 8.0 | 24.1 | 0.15 | 3.94 | 0.15 | 99 | 991.3 |
| 20260504042003 | 1 | 293 | 6.4 | 16.1 | 0.13 | 3.91 | 0.13 | 99 | 991.3 |
| 20260504041003 | 1 | 287 | 6.4 | 16.1 | 0.08 | 3.86 | 0.08 | 99 | 991.0 |
| 20260504040003 | 0 | 285 | 6.4 | 16.1 | 0.05 | 3.84 | 0.05 | 99 | 991.0 |
| 20260504035003 | 0 | 297 | 6.4 | 16.1 | 0.03 | 3.81 | 0.03 | 99 | 991.0 |
| 20260504034003 | 0 | 285 | 6.4 | 16.1 | 0.00 | 3.78 | 0.00 | 99 | 991.0 |
| 20260504033003 | 0 | 305 | 4.8 | 20.9 | 0.00 | 3.78 | 0.00 | 99 | 991.0 |
| 20260504032003 | 0 | 301 | 4.8 | 14.5 | 0.00 | 3.78 | 0.00 | 99 | 991.0 |
| 20260504031003 | 0 | 302 | 4.8 | 12.9 | 0.00 | 3.78 | 0.00 | 99 | 990.6 |
| 20260504030004 | 0 | 300 | 4.8 | 11.3 | 0.00 | 3.78 | 0.00 | 99 | 990.6 |
| 20260504025003 | 0 | 313 | 4.8 | 14.5 | 0.00 | 3.78 | 3.78 | 99 | 990.6 |
| 20260504024004 | 0 | 314 | 4.8 | 16.1 | 0.00 | 3.78 | 3.78 | 99 | 990.6 |
| 20260504023003 | 0 | 294 | 4.8 | 12.9 | 0.03 | 3.78 | 3.78 | 98 | 990.6 |
| 20260504022003 | 0 | 302 | 4.8 | 14.5 | 0.05 | 3.78 | 3.78 | 98 | 990.6 |
| 20260504021003 | 0 | 301 | 4.8 | 20.9 | 0.08 | 3.78 | 3.78 | 98 | 991.0 |
| 20260504020004 | 0 | 312 | 4.8 | 20.9 | 0.13 | 3.78 | 3.78 | 98 | 991.0 |
| 20260504015003 | 0 | 304 | 4.8 | 17.7 | 0.23 | 3.78 | 3.78 | 98 | 991.0 |
| 20260504014003 | 1 | 304 | 6.4 | 17.7 | 0.33 | 3.78 | 3.78 | 98 | 991.0 |
| 20260504013003 | 1 | 324 | 4.8 | 17.7 | 0.43 | 3.76 | 3.76 | 98 | 991.0 |
| 20260504012003 | 1 | 323 | 4.8 | 17.7 | 0.46 | 3.73 | 3.73 | 97 | 991.0 |
| 20260504011003 | 1 | 321 | 4.8 | 20.9 | 0.46 | 3.71 | 3.71 | 97 | 991.0 |
| 20260504010003 | 1 | 313 | 6.4 | 22.5 | 0.46 | 3.66 | 3.66 | 97 | 991.0 |
| 20260504005004 | 1 | 333 | 4.8 | 16.1 | 0.43 | 3.56 | 3.56 | 97 | 991.0 |
| 20260504004003 | 2 | 345 | 4.8 | 12.9 | 0.41 | 3.45 | 3.45 | 97 | 991.3 |
| 20260504003004 | 2 | 2 | 3.2 | 14.5 | 0.36 | 3.33 | 3.33 | 97 | 991.0 |
| 20260504002003 | 2 | 3 | 4.8 | 27.4 | 0.38 | 3.28 | 3.28 | 97 | 991.3 |
| 20260504001003 | 2 | 312 | 4.8 | 25.7 | 0.46 | 3.25 | 3.25 | 97 | 991.3 |
| 20260504000004 | 2 | 339 | 3.2 | 17.7 | 0.46 | 3.20 | 3.20 | 97 | 991.7 |
| 20260503235003 | 2 | 49 | 3.2 | 14.5 | 0.43 | 3.12 | 3.12 | 97 | 991.7 |
| 20260503234003 | 2 | 22 | 4.8 | 22.5 | 0.41 | 3.05 | 3.05 | 97 | 991.7 |
| 20260503233003 | 2 | 351 | 3.2 | 11.3 | 0.36 | 2.97 | 2.97 | 97 | 991.7 |
| 20260503232003 | 2 | 52 | 4.8 | 20.9 | 0.33 | 2.90 | 2.90 | 97 | 991.7 |